TimeMST,TemperatureF,Dew PointF,Humidity,Sea Level PressureIn,VisibilityMPH,Wind Direction,Wind SpeedMPH,Gust SpeedMPH,PrecipitationIn,Events,Conditions,WindDirDegrees,DateUTC
12:54 AM,39.9,14.0,35,30.10,10.0,Calm,Calm,-,N/A,,Clear,0,2013-10-22 07:54:00
1:54 AM,34.0,12.9,42,30.13,10.0,Calm,Calm,-,N/A,,Clear,0,2013-10-22 08:54:00
2:54 AM,34.0,14.0,44,30.12,10.0,South,4.6,-,N/A,,Clear,180,2013-10-22 09:54:00
3:54 AM,36.0,15.1,43,30.11,10.0,Calm,Calm,-,N/A,,Clear,0,2013-10-22 10:54:00
4:54 AM,28.0,10.9,49,30.16,10.0,Calm,Calm,-,N/A,,Clear,0,2013-10-22 11:54:00
5:54 AM,27.0,10.9,51,30.19,10.0,Calm,Calm,-,N/A,,Clear,0,2013-10-22 12:54:00
6:54 AM,28.9,12.0,49,30.24,10.0,WNW,3.5,-,N/A,,Clear,290,2013-10-22 13:54:00
7:54 AM,37.0,14.0,39,30.22,10.0,Calm,Calm,-,N/A,,Clear,0,2013-10-22 14:54:00
8:54 AM,45.0,16.0,31,30.22,10.0,Calm,Calm,-,N/A,,Clear,0,2013-10-22 15:54:00
9:54 AM,53.1,17.1,24,30.18,10.0,Calm,Calm,-,N/A,,Clear,0,2013-10-22 16:54:00
10:54 AM,59.0,18.0,20,30.14,10.0,Calm,Calm,-,N/A,,Clear,0,2013-10-22 17:54:00
11:54 AM,66.0,21.0,18,30.10,10.0,Variable,4.6,-,N/A,,Clear,0,2013-10-22 18:54:00
12:54 PM,68.0,15.1,13,30.06,10.0,Variable,3.5,-,N/A,,Clear,0,2013-10-22 19:54:00
1:54 PM,71.1,16.0,12,30.04,10.0,Calm,Calm,-,N/A,,Clear,0,2013-10-22 20:54:00
2:54 PM,71.1,16.0,12,30.03,10.0,NNW,3.5,-,N/A,,Clear,340,2013-10-22 21:54:00
3:54 PM,71.1,15.1,12,30.01,10.0,Variable,4.6,-,N/A,,Clear,0,2013-10-22 22:54:00
4:54 PM,69.1,14.0,12,30.04,10.0,WNW,6.9,-,N/A,,Clear,300,2013-10-22 23:54:00
5:54 PM,57.0,15.1,19,30.09,10.0,WNW,4.6,-,N/A,,Clear,300,2013-10-23 00:54:00
6:54 PM,53.1,14.0,21,30.12,10.0,WNW,4.6,-,N/A,,Clear,300,2013-10-23 01:54:00
7:54 PM,51.1,16.0,25,30.11,10.0,South,3.5,-,N/A,,Clear,180,2013-10-23 02:54:00
8:54 PM,46.9,15.1,28,30.10,10.0,South,5.8,-,N/A,,Clear,180,2013-10-23 03:54:00
9:54 PM,48.9,16.0,27,30.08,10.0,South,8.1,-,N/A,,Clear,170,2013-10-23 04:54:00
10:54 PM,48.0,17.1,29,30.05,10.0,South,4.6,-,N/A,,Clear,190,2013-10-23 05:54:00
11:54 PM,46.0,18.0,33,30.03,10.0,SSE,8.1,-,N/A,,Clear,160,2013-10-23 06:54:00